Tracking 22779 objects as of 14-Apr-2021
HD Live streaming from Space Station
objects crossing your sky now

EKRAN 4

Track EKRAN 4 now!
EKRAN 4 is classified as:


NORAD ID: 11561
Int'l Code: 1979-087A
Perigee: 35,729.1 km
Apogee: 35,843.3 km
Inclination: 10.1 °
Period: 1,435.7 minutes
Semi major axis: 42157 km
RCS: 0.1995 m2 (medium)
Launch date: October 3, 1979
Source: Commonwealth of Independent States (former USSR) (CIS)
Launch site: TYURATAM MISSILE AND SPACE COMPLEX (TTMTR)
aabbcc
Your satellite tracking list
Your tracking list is empty




NASA's NSSDC Master Catalog

Two Line Element Set (TLE):
1 11561U 79087A   21103.68341014  .00000053  00000-0  00000+0 0  9996
2 11561  10.1440 306.1619 0013546 112.0807  85.7951  1.00298707113969
Source of the keplerian elements: AFSPC